Flugzeuge & Charter

Preise (Charter):

Flugzeuge Normalpreis ab 12 h/Jahr -5% ab 20 h/Jahr -8%

Cessna 172 SP

D-E

234,00 € 222,30 € 215,28 €

 

     

Reservierungen können Sie über unser Buchungssystem vornehmen.

Neben unseren Flugzeugen können wir über unser Netzwerk weitere Flugzeuge vermitteln.

Für weitere Informationen füllen Sie bitte das Kontaktformular aus oder wenden sich direkt an:

Christian Sabionski

Tel.:   +49 (0)172 8140311

Flugwetter Augsburg

[source: ADDS]
METAR
EDMA 300320Z AUTO 23009KT 9999 // FEW036/// SCT041/// OVC130/// 10/08 Q1022 =
TAF EDMA 291700Z 2918/3003 24006KT 9999 OVC030 TEMPO 3000/3003 RA BKN014
TAF
TAF EDMA 291700Z 2918/3003 24006KT 9999 OVC030 TEMPO 3000/3003 RA BKN014 =
Cookies erleichtern die Bereitstellung unserer Dienste. Mit der Nutzung unserer Dienste erklären Sie sich damit einverstanden, dass wir Cookies verwenden.
Weitere Informationen Ok